Weather History for Augusta, GA

Change the Weather History Date:

Tuesday, April 2, 2013

  Actual Average Record
Temperature  
Mean Temperature 62 °F -  
Max Temperature 73 °F 71 °F 88 °F (2012)
Min Temperature 51 °F 50 °F 43 °F (2001)
Degree Days  
Heating Degree Days 3    
Month to date heating degree days 3  
Growing Degree Days 12 (Base 50)    
Moisture  
Dew Point 37 °F    
Average Humidity 41    
Maximum Humidity 59    
Minimum Humidity 23    
Precipitation  
Precipitation 0.00 in - - ()
Month to date precipitation 0.28  
Year to date precipitation 12.27  
Sea Level Pressure  
Sea Level Pressure 30.07 in    
Wind  
Wind Speed 6 mph (WNW)    
Max Wind Speed 15 mph    
Max Gust Speed 23 mph    
Visibility 10 miles    
Events      
Averages and records for this station are not official NWS values.
T = Trace of Precipitation, MM = Missing Value Source: NWS Daily Summary

Daily Weather History Graph

Daily Weather History Graph

Search for Another Location

Airport:

Trip Planner

Search our weather history database for the weather conditions in past years. The results will help you decide how hot, cold, wet, or windy it might be!

Date:

Astronomy

Apr. 02, 2013 Rise Set
Actual Time 7:14 AM EDT 7:49 PM EDT
Civil Twilight 6:49 AM EDT 8:14 PM EDT
Nautical Twilight 6:19 AM EDT 8:44 PM EDT
Astronomical Twilight 5:49 AM EDT 9:14 PM EDT
Moon 1:41 AM EDT (4/2) 12:15 PM EDT (4/2)
Length of Visible Light 13h 25m
Length of Day
12h 35m
Waning Gibbous, 56% of the Moon is Illuminated
Apr 2
Waning Gibbous
Apr 3
Last Quarter
Apr 10
New
Apr 18
First Quarter
Apr 25
Full

Hourly Weather History & Observations

Time (EDT) Temp. Dew Point Humidity Pressure Visibility Wind Dir Wind Speed Gust Speed Precip Events Conditions
12:53 AM 60.1 °F 39.9 °F 47% 30.00 in 10.0 mi WNW 6.9 mph - N/A   Clear
1:53 AM 57.9 °F 41.0 °F 53% 30.01 in 10.0 mi NW 5.8 mph - N/A   Clear
2:53 AM 57.0 °F 39.9 °F 53% 30.02 in 10.0 mi WNW 5.8 mph - N/A   Clear
3:53 AM 55.9 °F 39.0 °F 53% 30.02 in 10.0 mi WNW 4.6 mph - N/A   Clear
4:53 AM 55.0 °F 39.0 °F 55% 30.03 in 10.0 mi WNW 4.6 mph - N/A   Clear
5:53 AM 53.1 °F 39.0 °F 59% 30.06 in 10.0 mi Calm Calm - N/A   Clear
6:53 AM 53.1 °F 39.0 °F 59% 30.08 in 10.0 mi WNW 3.5 mph - N/A   Clear
7:53 AM 53.1 °F 39.0 °F 59% 30.12 in 10.0 mi WNW 6.9 mph - N/A   Clear
8:53 AM 55.9 °F 39.0 °F 53% 30.14 in 10.0 mi NNW 6.9 mph - N/A   Clear
9:53 AM 57.0 °F 39.0 °F 51% 30.14 in 10.0 mi NNW 9.2 mph - N/A   Clear
10:53 AM 61.0 °F 35.1 °F 38% 30.14 in 10.0 mi Variable 6.9 mph - N/A   Clear
11:53 AM 63.0 °F 32.0 °F 31% 30.15 in 10.0 mi WNW 8.1 mph - N/A   Clear
12:53 PM 64.9 °F 32.0 °F 29% 30.12 in 10.0 mi SW 4.6 mph - N/A   Clear
1:53 PM 69.1 °F 30.9 °F 24% 30.09 in 10.0 mi WNW 8.1 mph - N/A   Clear
2:53 PM 71.1 °F 33.1 °F 25% 30.06 in 10.0 mi NW 8.1 mph 17.3 mph N/A   Clear
3:53 PM 72.0 °F 34.0 °F 25% 30.05 in 10.0 mi NW 6.9 mph 19.6 mph N/A   Clear
4:53 PM 72.0 °F 37.0 °F 28% 30.04 in 10.0 mi WNW 12.7 mph 17.3 mph N/A   Clear
5:53 PM 72.0 °F 36.0 °F 27% 30.04 in 10.0 mi WNW 9.2 mph 19.6 mph N/A   Clear
6:53 PM 71.1 °F 37.0 °F 29% 30.05 in 10.0 mi WNW 8.1 mph - N/A   Clear
7:53 PM 68.0 °F 39.0 °F 35% 30.06 in 10.0 mi Calm Calm - N/A   Clear
8:53 PM 66.0 °F 39.9 °F 38% 30.06 in 10.0 mi Calm Calm - N/A   Clear
9:53 PM 64.9 °F 39.9 °F 40% 30.08 in 10.0 mi West 5.8 mph - N/A   Clear
10:53 PM 64.0 °F 37.9 °F 38% 30.09 in 10.0 mi WNW 6.9 mph - N/A   Clear
11:53 PM 61.0 °F 39.0 °F 44% 30.10 in 10.0 mi NNW 6.9 mph - N/A   Clear